TimeEDT,TemperatureF,Dew PointF,Humidity,Sea Level PressureIn,VisibilityMPH,Wind Direction,Wind SpeedMPH,Gust SpeedMPH,PrecipitationIn,Events,Conditions,WindDirDegrees,DateUTC
12:52 AM,51.1,48.9,92,30.19,10.0,Calm,Calm,-,N/A,,Clear,0,2013-06-20 04:52:00
1:52 AM,48.0,46.0,93,30.20,10.0,Calm,Calm,-,N/A,,Clear,0,2013-06-20 05:52:00
2:52 AM,46.9,45.0,93,30.21,10.0,Calm,Calm,-,N/A,,Clear,0,2013-06-20 06:52:00
3:52 AM,46.0,44.1,93,30.22,10.0,Calm,Calm,-,N/A,,Clear,0,2013-06-20 07:52:00
4:20 AM,44.6,44.6,100,30.21,8.0,Calm,Calm,-,N/A,,Partly Cloudy,0,2013-06-20 08:20:00
4:52 AM,45.0,44.1,97,30.23,10.0,Calm,Calm,-,N/A,,Clear,0,2013-06-20 08:52:00
5:52 AM,46.0,44.1,93,30.25,10.0,Calm,Calm,-,N/A,,Clear,0,2013-06-20 09:52:00
6:52 AM,48.9,46.0,90,30.26,10.0,Calm,Calm,-,N/A,,Clear,0,2013-06-20 10:52:00
7:52 AM,55.0,48.0,77,30.28,10.0,Calm,Calm,-,N/A,,Clear,0,2013-06-20 11:52:00
8:52 AM,62.1,48.0,60,30.27,10.0,Calm,Calm,-,N/A,,Clear,0,2013-06-20 12:52:00
9:52 AM,68.0,45.0,43,30.26,10.0,Variable,3.5,-,N/A,,Clear,0,2013-06-20 13:52:00
10:52 AM,71.1,45.0,39,30.25,10.0,SE,6.9,-,N/A,,Clear,130,2013-06-20 14:52:00
11:52 AM,73.0,46.0,38,30.26,10.0,Variable,5.8,-,N/A,,Scattered Clouds,0,2013-06-20 15:52:00
12:52 PM,73.9,45.0,35,30.25,10.0,Variable,4.6,-,N/A,,Clear,0,2013-06-20 16:52:00
1:52 PM,77.0,45.0,32,30.23,10.0,SSW,10.4,19.6,N/A,,Clear,210,2013-06-20 17:52:00
2:52 PM,77.0,44.1,31,30.23,10.0,West,6.9,-,N/A,,Partly Cloudy,280,2013-06-20 18:52:00
3:52 PM,78.1,45.0,31,30.22,10.0,WSW,9.2,-,N/A,,Clear,250,2013-06-20 19:52:00
4:52 PM,78.1,43.0,29,30.21,10.0,SW,8.1,-,N/A,,Partly Cloudy,230,2013-06-20 20:52:00
5:52 PM,78.1,41.0,27,30.20,10.0,West,5.8,-,N/A,,Clear,270,2013-06-20 21:52:00
6:52 PM,78.1,44.1,30,30.20,10.0,West,8.1,-,N/A,,Partly Cloudy,260,2013-06-20 22:52:00
7:52 PM,71.1,54.0,55,30.22,10.0,Calm,Calm,-,N/A,,Partly Cloudy,0,2013-06-20 23:52:00
8:52 PM,64.0,55.0,73,30.22,10.0,Calm,Calm,-,N/A,,Clear,0,2013-06-21 00:52:00
9:52 PM,62.1,55.0,78,30.25,10.0,Calm,Calm,-,N/A,,Mostly Cloudy,0,2013-06-21 01:52:00
10:52 PM,59.0,55.9,90,30.24,10.0,Calm,Calm,-,N/A,,Clear,0,2013-06-21 02:52:00
11:52 PM,57.9,55.0,90,30.26,10.0,NNE,3.5,-,N/A,,Clear,20,2013-06-21 03:52:00